Terminal Aerodrome Forecast
Issued by NWS

Home | Current Version | Previous Version | Text Only | Print | Product List | Glossary On
Versions: 1 2 3 4 5 6 7 8 9 10 11 12 13 14 15 16 17 18 19 20 21 22 23 24 25 26 27 28 29 30 31
000
FTUS41 KCTP 061743
TAFUNV
TAF
KUNV 061743Z 0618/0718 01009G15KT 6SM -RA OVC040
      TEMPO 0618/0621 3SM -RA OVC015
     FM070000 02004KT 3SM -RADZ BR OVC009
     FM071400 VRB03KT P6SM OVC025=

USA.gov is the U.S. government's official web portal to all federal, state and local government web resources and services.